This is the latest recevied weather packets stored in our database for station/object DG0LHZ-10. If no packets are shown the sender has not sent any weather packets the latest 10 day(s).
| Time | Temp. | Humidity | Pressure | Rain* | Wind** | Luminosity | Snow |
|---|---|---|---|---|---|---|---|
| 1777807160 | 31.67° C | 27% | 1015 hPa | - | - | - | - |
| 1777806260 | 31.67° C | 27% | 1015 hPa | - | - | - | - |
| 1777805360 | 31.11° C | 27% | 1015.1 hPa | - | - | - | - |
| 1777804460 | 30° C | 28% | 1015.2 hPa | - | - | - | - |
| 1777803560 | 29.44° C | 29% | 1015.4 hPa | - | - | - | - |
| 1777802660 | 28.33° C | 30% | 1015.5 hPa | - | - | - | - |
| 1777801760 | 27.78° C | 30% | 1015.7 hPa | - | - | - | - |
| 1777800860 | 26.67° C | 31% | 1015.7 hPa | - | - | - | - |
| 1777799960 | 25.56° C | 32% | 1015.8 hPa | - | - | - | - |
| 1777799060 | 25° C | 33% | 1015.9 hPa | - | - | - | - |
| 1777798160 | 23.89° C | 33% | 1016 hPa | - | - | - | - |
| 1777797260 | 23.33° C | 33% | 1016 hPa | - | - | - | - |
| 1777796360 | 22.22° C | 33% | 1016.2 hPa | - | - | - | - |
| 1777795460 | 21.67° C | 33% | 1016.1 hPa | - | - | - | - |
| 1777794560 | 20.56° C | 34% | 1016.2 hPa | - | - | - | - |
| 1777793659 | 20° C | 34% | 1016 hPa | - | - | - | - |
| 1777792759 | 19.44° C | 34% | 1016 hPa | - | - | - | - |
| 1777791859 | 18.33° C | 35% | 1016.1 hPa | - | - | - | - |
| 1777790959 | 17.78° C | 35% | 1016.1 hPa | - | - | - | - |
| 1777790059 | 17.22° C | 35% | 1016.1 hPa | - | - | - | - |
| 1777789159 | 16.67° C | 37% | 1016.1 hPa | - | - | - | - |
| 1777788259 | 16.11° C | 37% | 1016.1 hPa | - | - | - | - |
| 1777787359 | 15.56° C | 37% | 1016 hPa | - | - | - | - |
| 1777786459 | 15.56° C | 37% | 1016 hPa | - | - | - | - |
| 1777785559 | 15.56° C | 38% | 1016.1 hPa | - | - | - | - |
* Rain since midnight (hover to see other rain measurements)
** Current wind speed in m/s (hover to see current wind gust speed)